Miscellaneous Local Product
Issued by NWS North Platte, NE

Home | Current Version | Previous Version | Text Only | Print | Product List | Glossary On
Versions: 1 2 3 4 5 6 7 8 9 10 11 12 13 14 15 16 17 18 19 20 21 22 23 24 25 26 27 28 29 30 31 32 33 34 35 36 37 38 39 40 41 42 43 44 45 46 47 48 49 50
000
AXUS43 KLBF 271010
MISLBF


WESTERN AND NORTH CENTRAL NEBRASKA HOURLY WEATHER ROUNDUP
NATIONAL WEATHER SERVICE NORTH PLATTE NE
400 AM CST FRI FEB 27 2015

***STATIONS NOT REPORTING VARIABLES SUCH AS SKY/WEATHER OR
PRESSURE ARE PROVIDED BY THE NEBRASKA DEPARTMENT OF
ROADS...RAWS...AND APRS NETWORKS...AND ARE NOT UNDER
NATIONAL WEATHER SERVICE QUALITY CONTROL***

...OBSERVATIONS IN AND NEAR THE EASTERN PANHANDLE OF NEBRASKA...

CITY           SKY/WX    TMP DP  RH WIND       PRES   REMARKS
PINE RIDGE     CLEAR     -6 -12  75 CALM      30.30F
CHADRON        PTCLDY    -7 -13  75 CALM      30.30F
ALLIANCE       CLOUDY     2  -3  80 SE10      30.24F WCI -14
SIDNEY         CLOUDY     4  -3  73 SE10      30.20F WCI -11
WHITECLAY        N/A     -6 -13  71 CALM        N/A
CRESCENT LAKE    N/A      2  -5  70 SE6         N/A  WCI  -9
LISCO            N/A      9  -3  59 E10         N/A  WCI  -5
BIG SPRINGS      N/A      8   0  69 SE12        N/A  WCI  -7
LEWELLEN         N/A      1  -8  67 SE5         N/A  WCI  -9
$$

...OBSERVATIONS IN NORTH CENTRAL NEBRASKA...

CITY           SKY/WX    TMP DP  RH WIND       PRES   REMARKS
VALENTINE      CLEAR     -6 -11  79 W3        30.41F
THEDFORD       CLEAR     -4  -9  79 CALM      30.39F
AINSWORTH      CLEAR     -4  -9  80 SW5       30.41F WCI -15
O`NEILL        CLEAR     -4  -8  81 SW3       30.48S
ORD            CLEAR     -8 -14  74 SW3       30.48F
BROKEN BOW     CLEAR     -8 -12  83 N3        30.42F
BROWNLEE         N/A     -5  -8  86 CALM        N/A
SPRINGVIEW       N/A    -10 -15  80 CALM        N/A
BREWSTER         N/A     -1  -5  82 CALM        N/A
ROSE             N/A      6   4  91 MISG        N/A
NEWPORT          N/A      2  -1  90 CALM        N/A
SARGENT          N/A     -3  -6  84 CALM        N/A
COMSTOCK         N/A     -1  -7  74 CALM        N/A
CHAMBERS         N/A     -8 -23  46 CALM        N/A
EWING            N/A     -8 -12  83 CALM        N/A
$$

...OBSERVATIONS IN SOUTHWEST NEBRASKA AND FAR NORTHEAST COLORADO...

CITY           SKY/WX    TMP DP  RH WIND       PRES   REMARKS
WRAY           CLOUDY    10   3  72 E14       30.28F WCI  -5
IMPERIAL       CLOUDY     6  -4  63 SE9       30.34F WCI  -8
OGALLALA       CLOUDY     4  -2  76 E6        30.34F WCI  -7
NORTH PLATTE   CLEAR     -3  -8  79 CALM      30.41F
MCCOOK         CLOUDY     8  -2  63 E7        30.43F WCI  -3
LEXINGTON      CLEAR      1  -5  78 CALM      30.45S
PAXTON           N/A     -2  -7  80 CALM        N/A
BRADY            N/A     -2  -7  78 CALM        N/A
GOTHENBURG       N/A      3  -3  76 CALM        N/A
CALLAWAY         N/A     -7 -11  81 SE3         N/A
$$

...NORTH PLATTE AREA...

CITY           SKY/WX    TMP DP  RH WIND       PRES   REMARKS
AIRPORT        CLEAR     -3  -8  79 CALM      30.41F
DOWNTOWN         N/A      0  -6  75 CALM        N/A
$$

...SOME WEATHER OBSERVATIONS FROM AROUND THE REGION...

CITY           SKY/WX    TMP DP  RH WIND       PRES   REMARKS
DENVER         FLURRIES   1  -4  79 S10       30.03F WCI -15
LARAMIE        MOCLDY     0  -5  79 SE18      29.84F WCI -21
CHEYENNE       CLOUDY     3  -2  79 SE10      29.98F HAZE    WCI -12
SCOTTSBLUFF    LGT SNOW   7   1  76 SE14      30.22F WCI -10
RAPID CITY     CLEAR     -6 -11  79 SE3       30.27F
PIERRE         CLEAR     -3  -8  79 SW3       30.46F
WINNER         FAIR       1  -9  62 SW8       30.46F WCI -13
SIOUX FALLS    CLEAR     -9 -14  78 CALM      30.51F
OMAHA          CLEAR     -2  -7  79 NW6       30.60F WCI -14
GRAND ISLAND   CLEAR     -3  -8  79 NW3       30.52F
KANSAS CITY    PTCLDY     2  -4  76 N5        30.58S WCI  -8
WICHITA        CLOUDY    11   0  61 NE9       30.54S WCI  -2
HAYS           CLOUDY     9  -8  47 E8        30.48S WCI  -4
LIBERAL        CLOUDY    14   5  67 E8        30.37R WCI   3
GOODLAND       LGT SNOW  11   7  84 SE15      30.28F FOG     WCI  -5
$$



USA.gov is the U.S. government's official web portal to all federal, state and local government web resources and services.